Location: Sungai Pih
(2.7833°N, 113.8333°E)
Time: 16:15:02
(UTC+00:00)

Daily predictions for brighter satellites

Satellite Brightness Start Highest point End
(mag) Time Altitude Azimuth Time Altitude Azimuth Time Altitude Azimuth
Cosmos 1378 Rocket 3.8 12:00:19 10° SSW 12:04:35 65° W 12:08:52 10° N
Cosmos 2239 Rocket 4.3 12:05:23 10° N 12:11:35 83° E 12:14:56 29° S
CSL-04 Rocket 3.6 12:09:56 42° SSE 12:11:51 75° ENE 12:17:21 10° N
Cosmos 2082 3.6 12:06:37 10° NNW 12:12:20 86° WSW 12:14:36 39° SSE
Sich 1 Rocket 3.9 12:12:43 10° NNW 12:17:03 62° W 12:18:26 40° SSW
Cosmos 2322 4.1 12:19:26 43° ENE 12:19:26 43° ENE 12:23:33 10° NNE
Ariane H10 4.2 12:16:04 10° SW 12:18:57 33° S 12:18:57 33° S
Cosmos 1140 Rocket 3.6 12:16:58 10° N 12:21:36 55° NE 12:21:36 55° NE
Cosmos 1110 Rocket 3.9 12:18:01 13° SSW 12:22:43 83° WNW 12:27:51 10° N
Atlas Centaur 2 3.3 12:29:18 10° W 12:31:13 20° SW 12:31:13 20° SW
In-Cosmos 22 4.2 12:39:11 71° WSW 12:39:24 72° W 12:44:39 10° N
Centaur AC-42 4.1 12:14:52 10° WSW 12:39:39 36° S 12:40:20 35° S
DELTA 2 R/B (1) 4.2 12:48:09 10° WSW 12:52:32 50° W 12:52:32 50° W
Cosmos 2263 Rocket 3.2 12:51:47 10° N 12:55:11 37° N 12:55:11 37° N
Cosmos 2219 Rocket 3.7 13:10:27 29° NNW 13:10:27 29° NNW 13:13:16 10° N
Cosmos 2333 Rocket 3.4 13:11:48 38° W 13:12:01 38° WNW 13:17:18 10° N
Kakehashi 4.4 13:14:11 10° WNW 13:20:16 49° W 13:20:16 49° W
ATLAS 2AS CENTAUR R/B 3.3 19:38:07 56° N 19:38:07 56° N 19:44:13 10° NNE
Cosmos 2082 Rocket 4.2 19:46:17 19° N 19:46:17 19° N 19:47:48 10° N
ATLAS 2A CENTAUR R/B 3.8 19:51:10 22° NE 19:51:10 22° NE 19:56:13 10° E
CZ-2C R/B 4.5 19:46:22 10° NNE 19:47:44 19° NNE 19:47:44 19° NNE
Centaur AC-112 4.0 19:56:37 43° NNE 19:56:37 43° NNE 20:04:47 10° NE
ALOS 3.7 19:53:30 10° NNE 19:56:23 35° NE 19:56:23 35° NE
Cosmos 2315 Rocket 3.9 20:05:50 10° N 20:11:41 78° NW 20:11:41 78° NW
ARIANE 5 R/B 3.8 20:14:32 36° ESE 20:14:32 36° ESE 20:19:46 10° E
Cosmos 1745 Rocket 4.2 20:12:07 42° SSE 20:14:10 66° E 20:20:14 10° NNE
Cosmos 2112 Rocket 4.0 20:17:04 79° E 20:17:04 79° E 20:22:17 10° NNE
GPS 2-17 Rocket1 3.8 20:26:13 44° N 20:26:48 46° NNE 20:31:15 10° E
Ariane H10+ 3.6 20:28:10 27° SSE 20:28:10 27° SSE 20:34:18 10° ESE
Cosmos 1680 Rocket 3.7 20:30:47 55° NW 20:30:47 55° NW 20:35:29 10° N
Cosmos 1656 3.8 20:27:51 10° N 20:33:29 76° ENE 20:39:03 10° SSE
Cosmos 1470 Rocket 4.3 20:33:19 28° SSE 20:35:21 51° E 20:39:41 10° NNE
Sakura Rocket 4.2 20:33:33 49° W 20:35:25 71° NNW 20:43:59 10° NE
ISS -1.0 20:42:34 11° NNW 20:42:34 11° NNW 20:42:51 10° NNW
SWIFT 2.6 20:44:57 50° NW 20:45:18 52° NNW 20:49:23 10° NE
Centaur D-1A AC-32 3.8 20:44:16 20° NW 20:45:31 24° NNW 20:50:38 10° NE
Cosmos 44 Rocket 3.5 20:46:05 49° W 20:46:31 51° WNW 20:51:25 10° N
USA 281 3.2 20:41:33 10° S 20:47:58 57° WSW 20:54:22 10° NNW
BLOCK DM-SL R/B 4.4 20:37:09 25° W 20:48:03 76° S 20:53:32 10° E
USA 276 4.4 20:48:06 17° SE 20:48:43 18° SE 20:50:56 10° E
Cosmos 1484 Rocket 3.7 20:46:23 10° N 20:48:56 34° NW 20:48:56 34° NW
Ariane H10-3 2.8 20:50:07 32° N 20:50:09 32° N 20:53:11 10° ENE
HETE-2 4.5 20:51:52 59° SW 20:52:16 64° S 20:56:26 10° E
Cosmos 1697 Rocket 3.6 20:47:17 10° N 20:52:43 49° ENE 20:58:08 10° SSE
SJ-12 4.4 20:53:17 10° NNE 20:57:15 59° E 21:00:34 14° S
deb Ariane 3.2 20:59:53 34° WNW 21:01:07 66° N 21:04:07 10° E
OAO 2 Rocket 3.5 20:59:16 33° SW 21:01:35 70° SE 21:06:50 10° ENE
RESURS DK-1 4.1 21:02:59 18° WNW 21:02:59 18° WNW 21:05:09 10° NNW
Cosmos 1666 2.5 21:01:21 26° S 21:03:22 89° W 21:07:04 10° N
MOS 1 Rocket 3.9 20:59:39 10° SSE 21:03:54 52° E 21:08:02 10° N
Ariane H10 4.5 21:05:27 12° SSE 21:05:27 12° SSE 21:06:36 10° SE
Meteor 1-5 Rocket 4.0 21:00:12 11° S 21:05:25 84° W 21:10:43 10° N
Meteor 1-31 Rocket 2.7 21:02:34 10° NNE 21:06:21 82° ESE 21:09:18 16° S
ARIANE 5 DEB (SYLDA) 2.7 21:07:58 31° SW 21:08:55 38° S 21:11:20 10° ESE
H-2A R/B 3.5 21:06:39 10° NNE 21:10:21 52° E 21:14:04 10° S
Cosmos 2228 Rocket 4.2 21:12:32 10° NW 21:16:03 23° W 21:16:12 23° W
FALCON 9 DEB 3.8 21:18:31 27° W 21:19:19 31° SW 21:22:22 10° S
ARIANE 5 R/B 3.8 21:18:10 22° SW 21:20:29 41° S 21:35:09 10° ESE
Nadezhda 1 Rocket 4.0 21:14:15 10° N 21:20:33 85° W 21:26:58 10° S
BLOCK DM-SL R/B 1.1 21:18:31 20° W 21:20:58 87° S 21:23:03 10° E
Cosmos 1980 Rocket 3.5 21:18:01 10° N 21:23:18 43° ENE 21:28:35 10° SE
Cosmos 1862 Rocket 3.8 21:24:31 10° N 21:28:57 73° E 21:33:22 10° S
SL-27 R/B 2.4 21:27:45 14° SSW 21:30:23 54° WNW 21:33:35 10° N
Cosmos 2369 3.7 21:29:06 10° NNW 21:34:44 88° WSW 21:40:22 10° SSE
Meteor 1-19 Rocket 4.3 21:30:46 10° N 21:36:42 76° W 21:42:29 10° S
IRAS Rocket 4.2 21:31:16 10° S 21:36:53 74° WSW 21:42:29 10° NNW
CZ-4B R/B 3.3 21:33:17 10° NNE 21:37:44 77° ESE 21:42:04 10° S
Cosmos 2360 4.2 21:34:23 10° NNW 21:39:57 61° WSW 21:45:32 10° S
FALCON 9 DEB 3.2 21:37:17 10° NNW 21:40:17 66° ENE 21:43:17 10° SE
Meteor 1-11 Rocket 3.9 21:35:09 10° S 21:41:08 82° W 21:47:03 10° N
Cosmos 1048 Rocket 4.1 21:38:07 10° SSW 21:43:30 89° ESE 21:48:49 10° NNE
Cosmos 1707 Rocket 4.5 21:41:17 10° NW 21:44:55 27° W 21:48:34 10° SSW
NOSS 3-2 (A) 4.3 21:37:30 10° NW 21:46:02 61° WSW 21:54:38 10° S
YAOGAN 6 2.8 21:43:43 10° N 21:47:01 44° W 21:50:23 10° SSW
Atlas Centaur 2 4.5 21:41:38 10° SSW 21:48:38 28° SSE 21:55:30 10° E
CZ-3 Stage 3 2.8 21:46:34 10° W 21:49:16 36° NNW 21:57:11 10° NE
FALCON 9 DEB 3.6 21:46:42 10° NNW 21:49:44 58° NE 21:52:44 10° SE
NOSS 3-2 (C) 4.5 21:41:21 10° NNW 21:50:02 84° ENE 21:58:50 10° SSE
FALCON 9 DEB 2.7 21:48:12 10° NW 21:51:13 87° WSW 21:54:14 10° SSE
H-2A R/B 3.8 21:47:27 10° SE 21:51:36 38° ENE 21:55:38 10° N
BREEZE-M DEB (TANK) 2.4 21:48:25 10° NW 21:53:38 81° SW 21:56:03 10° SE
Cosmos 1544 3.0 21:51:45 10° S 21:55:19 69° W 21:58:55 10° N
Meteor 1-18 Rocket 4.5 21:50:13 10° NNW 21:55:58 55° W 22:01:45 10° S
Meteor PRIRODA 3.9 21:52:38 10° N 21:56:14 51° WNW 21:59:50 10° SSW
Cosmos 371 Rocket 3.8 21:53:04 10° NW 21:57:28 37° WSW 22:01:54 10° S
Cosmos 1743 3.2 21:53:46 10° S 21:57:35 66° E 22:01:24 10° N
Okean 1-7 4.3 21:56:32 10° NNE 22:00:38 45° E 22:04:44 10° SSE
ARIANE 5 R/B 4.5 21:15:02 10° W 22:06:04 55° SSW 22:12:45 10° ESE
